Powrót do katalogu

GLOBALSTAR M022

AktywnyŁącznośćLEO
NORAD 25649·PAYLOAD·🇺🇸 United States

Wystrzelony Mar 15, 1999 z Baikonur Cosmodrome

Loading…

Następne Przeloty (najbliższe 24 godziny)

TLE

ŚwieżeSource: Space-Track

Epoka: Sep 14, 2026, 10:36 UTC

1 25649U 99012A   26257.44216640 -.00000064  00000-0  27697-3 0  9991
2 25649  52.0026 136.0071 0002766   1.6598 169.2571 12.02515869231029

Śledź GLOBALSTAR M022 w czasie rzeczywistym z AllMySat

Download on the App Store